Погода в Старом Черьке

Россия / Кабардино-Балкарская Республика     43°28′09″N   43°51′12″E
темп.,
°C
ветер,
м/с
пор.,
м/с
влажн.,
%
обл.,
%
осадки,
мм/ч
давл.,
гПа
погр.,
м
7 мая, пт
пт700:00+8зсз238050 0.0 101440
03:00+7зсз1181100 0.0 101511
06:00+9сз1177100 0.0 101544
09:00+14ссв2165100 0.0 1016360
12:00+19ссв33522 0.0 1016904
15:00+20св33449 0.0 10161361
18:00+18в226225 0.0 101752
21:00+13ююз22705 0.0 101911
8 мая, сб
сб800:00+12юз22725 0.0 101912
03:00+11юз21751 0.0 101812
06:00+12ююз11725 0.0 101720
09:00+18в3456100 0.0 1016698
12:00+21в345096 0.0 10141304
15:00+21в4450100 0.0 10131268
18:00+19св246865 0.0 1012102
21:00+13зюз11780 0.0 101211
9 мая, вс
вс900:00+12з228098 0.0 101112
03:00+11з1169100 0.0 101011
06:00+14св116377 0.0 101019
09:00+18с3465100 0.0 1010671
12:00+21ссв435791 0.0 10081262
15:00+12сз91574100 0.4 1011662
18:00+7ссз71388100 6.6 1016657
21:00+7сз71385100 10.8 10211081
10 мая, пн
пн1000:00+7сз41083100 1.8 1022731
03:00+6юз358799 2.6 1023236
06:00+6ююз338693 0.0 1022120
09:00+10ююз126199 0.1 10211100
12:00+13всв115157 0.1 10201570
15:00+12св125873 1.3 10191187
18:00+9зсз2485100 2.8 1021360
21:00+7з2392100 9.4 1023260
11 мая, вт
вт1100:00+6сз1192100 1.2 1021144
03:00+6св0092100 1.3 1020143
06:00+6всв1296100 0.5 1021204
09:00+7в448799 0.8 1020593
12:00+11вюв347092 0.1 10191099
15:00+12в3465100 0.2 10181189
18:00+12всв247295 0.0 1017525
21:00+9юз118029 0.0 101812